User: anonymous   Login
Location: Unspecified
(0.0000°N, 0.0000°E)
Time: 00:53:03
(UTC+00:00)
Language:

STARLINK-3795 - Orbit

View from above orbital plane
View from above orbital plane
View from above satellite
View from above satellite

Ground track
Ground track

The orbit is defined by the following mean orbital elements,

1 52264U          26145.34800867 +.00000000 +00000-0 +80723-4 0 00000
2 52264  53.2123 124.9837 0001364  87.8187 272.2961 15.08833902    02
Epoch (UTC): 25 May 2026 08:21:07
Eccentricity: 0.0001364
inclination: 53.2123°
perigee height: 539 km
apogee height: 541 km
right ascension of ascending node: 124.9837°
argument of perigee: 87.8187°
revolutions per day: 15.08833902
mean anomaly at epoch: 272.2961°

The dashed part of the orbit path shows where the satellite is in the earth's shadow,  

DLR